Погода в Солянке

Россия / Республика Саха (Якутия)     60°28′14″N   120°43′22″E
темп.,
°C
ветер,
м/с
пор.,
м/с
влажн.,
%
обл.,
%
осадки,
мм/ч
давл.,
гПа
погр.,
м
27 февраля, сб
сб2700:00−25в1194100 0.0 102320
03:00−25св1196100 0.0 102220
06:00−25з1197100 0.0 102219
09:00−24з0097100 0.0 102240
12:00−20зсз2496100 0.4 1022508
15:00−19сз4793100 1.0 1021863
18:00−21сз4995100 0.4 1023854
21:00−22зсз41094100 0.6 10231028
28 февраля, вс
вс2800:00−23зсз3994100 0.1 1025844
03:00−24з4988100 0.1 1026575
06:00−26з41090100 0.0 1028446
09:00−28з31190100 0.0 1030443
12:00−24з4883100 0.0 1031976
15:00−23з5878100 0.0 10311383
18:00−25з2587100 0.0 1032117
21:00−30зюз229273 0.0 103319
1 марта, пн
пн100:00−32юз129564 0.0 103319
03:00−33юз129756 0.0 103419
06:00−34юз129883 0.0 103419
09:00−33ююз129990 0.0 103419
12:00−27юз2391100 0.0 1032348
15:00−24юз2388100 0.0 1030527
18:00−27ю119486 0.1 103019
21:00−30ююв119589 0.1 102919
2 марта, вт
вт200:00−32юв1110064 0.0 102919
03:00−33в1110077 0.0 102819
06:00−34всв119996 0.0 102719
09:00−33всв119758 0.0 102619
12:00−24в138723 0.0 1024371
15:00−21всв237752 0.0 1022884
18:00−24св3592100 0.0 1022120
21:00−29всв239169 0.0 102340
3 марта, ср
ср300:00−32св229543 0.0 102221
03:00−34ссв229648 0.0 102320
06:00−35ссв229754 0.0 102423
09:00−35с129752 0.0 102448
12:00−27с238974 0.0 1023363
15:00−25с359087 0.0 1023525
18:00−28ссз2593100 0.0 1024121
21:00−34ссз229665 0.0 102620